Weather in Nan

Thailand     18°48′27″N   100°46′17″E
temp.,
°C
wind,
m/s
gust,
m/s
humid.,
%
clouds,
%
prec.,
mm/h
press.,
hPa
HPBL,
m
15 april, thu
thu1501:00+25se127898 0.3 1010135
04:00+24ese0086100 0.0 100947
07:00+24ene0081100 0.0 1010168
10:00+30s1152100 0.0 1011838
13:00+35se233699 0.0 10081611
16:00+36sse333093 0.0 10042082
19:00+31sse22440 0.0 100535
22:00+29s1151100 0.0 100715
16 april, fri
fri1601:00+27s115698 0.0 100714
04:00+25se1167100 0.6 100712
07:00+26se1266100 0.6 1009108
10:00+30s1150100 0.0 1011685
13:00+34s223581 0.0 10081345
16:00+36s333070 0.0 10041786
19:00+30ssw36488 0.0 1006180
22:00+27ne016064 0.0 101018
17 april, sat
sat1701:00+25ne116635 0.0 101034
04:00+24e0070100 0.0 101015
07:00+25ese016891 0.0 1012129
10:00+29ssw2354100 0.0 10141055
13:00+29nw125679 0.7 1011359
16:00+31sse675283 0.3 10081288
19:00+25wsw2578100 2.4 1011289
22:00+24nne1282100 1.8 101488
18 april, sun
sun1801:00+23nw1188100 3.3 101373
04:00+23wnw0087100 0.0 101275
07:00+23nnw1187100 3.2 1014136
10:00+28s126397 0.0 1014894
13:00+32sw2249100 1.6 10101840
16:00+30se235299 0.6 10081350
19:00+27se246999 0.6 1009112
22:00+25e127568 0.1 101091
19 april, mon
mon1901:00+24ese11809 0.1 101014
04:00+23nne00845 0.2 101012
07:00+24ene01824 0.8 1011155
10:00+30ssw23568 0.5 10111035
13:00+34s2339100 0.8 10072586
16:00+32ese234510 0.1 10051140
19:00+29se23550 0.1 100552
22:00+27e016787 0.0 100812